Content
SEND FEEDBACK

Daily
Averages
Monthly
Summary
United States of America

RAPID CITY, SOUTH DAKOTA


Home > North America > United States > South Dakota
Elevation: 3162 feet     Latitude: 44 03N     Longitude: 103 04W

WEATHER
 
SELECT A DAY
Number of Records: 204,993;   Date Range: 1/1/95 - 12/18/14
 
SHARE

PRINT THIS DATA

[ ← Previous Day ]
WEATHER ALMANAC - FEBRUARY 12, 2013
[ Next Day → ]
[ °C ]   °F
Weather ElementAverageHighLow
Temperature32.7 °F46.9 °F (1:52 pm)14 °F (4:52 am)
Dewpoint15.7 °F21 °F (11:52 am)5 °F (3:52 am)
Humidity51.3 %68 % (5:52 am)33 % (2:52 pm)
Barometer30.01 in30.07 in (8:52 am)29.91 in (10:52 pm)
Wind Speed9.1 mph23 mph (12:52 pm)
Wind Gust28.8 mph (12:52 pm)
Weather ElementAverage
Visibility10 mi
Wind DirectionSW (230.4 °)

Weather ElementTotal
Precipitation---
Heating Degree Days34.6 (Base 65)
Averaged from 23 records on February 12, 2013
WEATHER CONDITIONS BREAKOUT
WIND DIRECTION BREAKOUT
WEATHER BY HOUR - FEBRUARY 12, 2013
[ °C ]   °F
Local TimeTemperatureDewpointHumidityBarometerVisibilityWind DirectionWind SpeedGust SpeedPrecipitationEventsConditions
1:52 AM19.0 °F8.1 °F62 %30.03 in10.0 miWSW (250°)4.6 mphPartly Cloudy
2:52 AM19.9 °F10.0 °F65 %30.01 in10.0 miCalmPartly Cloudy
3:52 AM17.1 °F5.0 °F59 %30.02 in10.0 miCalmClear
4:52 AM14.0 °F5.0 °F67 %30.04 in10.0 miCalmClear
5:52 AM15.1 °F6.1 °F68 %30.05 in10.0 miWest (280°)3.5 mphScattered Clouds
6:52 AM19.9 °F10.0 °F65 %30.06 in10.0 miWNW (300°)3.5 mphMostly Cloudy
7:52 AM26.1 °F15.1 °F63 %30.06 in10.0 miCalmClear
8:52 AM33.1 °F19.9 °F59 %30.07 in10.0 miCalmScattered Clouds
9:52 AM37.9 °F17.1 °F43 %30.05 in10.0 miCalmClear
10:52 AM45.0 °F18.0 °F34 %30.04 in10.0 miNorth (360°)12.7 mph16.1 mphMostly Cloudy
11:52 AM44.1 °F21.0 °F40 %30.02 in10.0 miNorth (350°)21.9 mph27.6 mphOvercast
12:52 PM44.1 °F21.0 °F40 %30.00 in10.0 miNorth (350°)23.0 mph28.8 mphOvercast
1:52 PM46.9 °F19.9 °F34 %29.98 in10.0 miNNW (340°)18.4 mph27.6 mphOvercast
2:52 PM46.0 °F18.0 °F33 %29.97 in10.0 miNNW (340°)18.4 mphClear
3:52 PM42.1 °F18.0 °F38 %29.99 in10.0 miNorth (350°)19.6 mphClear
4:52 PM37.9 °F18.0 °F45 %30.01 in10.0 miNorth (350°)19.6 mphClear
5:52 PM36.0 °F18.0 °F48 %30.03 in10.0 miNW (320°)13.8 mphPartly Cloudy
6:52 PM36.0 °F18.0 °F48 %30.03 in10.0 miWNW (290°)9.2 mphOvercast
7:52 PM30.9 °F17.1 °F57 %30.01 in10.0 miWNW (290°)6.9 mphPartly Cloudy
8:52 PM33.1 °F19.0 °F56 %29.99 in10.0 miWNW (290°)5.8 mphOvercast
9:52 PM37.0 °F19.9 °F50 %29.95 in10.0 miWNW (290°)11.5 mphOvercast
10:52 PM37.0 °F19.9 °F50 %29.91 in10.0 miWest (270°)9.2 mphMostly Cloudy
11:52 PM33.1 °F19.0 °F56 %29.91 in10.0 miWest (280°)8.1 mphClear
Hourly data recorded from KRAP, located miles away from Rapid City, South Dakota







STORIES FROM OUR PARTNERS